Weather History for Rochester, NH

Change the Weather History Date:

Tuesday, October 30, 2012

  Actual Average (KSFM) Record (KSFM)
Temperature  
Mean Temperature 60 °F -  
Max Temperature 64 °F 51 °F 64 °F (2005)
Min Temperature 57 °F 31 °F 23 °F (2002)
Degree Days  
Heating Degree Days 4    
Growing Degree Days 10 (Base 50)    
Moisture  
Dew Point 57 °F    
Average Humidity 89    
Maximum Humidity 100    
Minimum Humidity 77    
Precipitation  
Precipitation 0.81 in - - ()
Sea Level Pressure  
Sea Level Pressure 29.55 in    
Wind  
Wind Speed 11 mph (ESE)    
Max Wind Speed 23 mph    
Max Gust Speed 38 mph    
Visibility 7 miles    
Events Fog , Rain , Thunderstorm    
Averages and records for this station are not official NWS values.
T = Trace of Precipitation, MM = Missing Value Source: NWS Daily Summary

Daily Weather History Graph

Daily Weather History Graph

Search for Another Location

Airport:

Trip Planner

Search our weather history database for the weather conditions in past years. The results will help you decide how hot, cold, wet, or windy it might be!

Date:

Astronomy

Oct. 30, 2012 Rise Set
Actual Time 7:16 AM EDT 5:37 PM EDT
Civil Twilight 6:47 AM EDT 6:06 PM EDT
Nautical Twilight 6:13 AM EDT 6:40 PM EDT
Astronomical Twilight 5:40 AM EDT 7:13 PM EDT
Moon 6:02 PM EDT (10/30) 8:02 AM EDT (10/30)
Length of Visible Light 11h 19m
Length of Day
10h 20m
Full, 99% of the Moon is Illuminated
Oct 30
Full
Nov 6
Last Quarter
Nov 13
New
Nov 20
First Quarter
Nov 28
Full

Hourly Weather History & Observations

Time (EDT) Temp. Dew Point Humidity Pressure Visibility Wind Dir Wind Speed Gust Speed Precip Events Conditions
12:34 AM 60.8 °F 57.2 °F 88% 29.39 in 2.5 mi East 18.4 mph 29.9 mph 0.08 in Rain Heavy Rain
12:48 AM 60.8 °F 57.2 °F 88% 29.40 in 4.0 mi East 19.6 mph 28.8 mph 0.10 in Rain Rain
12:51 AM 60.1 °F 57.9 °F 93% 29.39 in 3.0 mi ESE 19.6 mph 28.8 mph 0.12 in Rain Rain
1:01 AM 60.8 °F 57.2 °F 88% 29.40 in 2.5 mi ESE 18.4 mph 29.9 mph 0.05 in Rain Heavy Rain
1:09 AM 60.8 °F 57.2 °F 88% 29.40 in 4.0 mi ESE 12.7 mph 29.9 mph 0.06 in Rain Light Rain
1:51 AM 60.1 °F 59.0 °F 96% 29.42 in 5.0 mi East 11.5 mph 25.3 mph 0.08 in   Overcast
3:51 AM 61.0 °F 59.0 °F 93% 29.43 in 6.0 mi ESE 13.8 mph 19.6 mph 0.01 in   Overcast
4:01 AM 60.8 °F 59.0 °F 94% 29.44 in 6.0 mi ESE 11.5 mph 19.6 mph N/A   Overcast
4:51 AM 61.0 °F 59.0 °F 93% 29.44 in 7.0 mi ESE 11.5 mph - 0.01 in   Overcast
6:15 AM 60.8 °F 57.2 °F 88% 29.49 in 8.0 mi ESE 8.1 mph 17.3 mph N/A   Overcast
6:38 AM 60.8 °F 57.2 °F 88% 29.50 in 8.0 mi SE 11.5 mph 16.1 mph 0.00 in   Overcast
7:51 AM 61.0 °F 57.0 °F 87% 29.53 in 7.0 mi ESE 6.9 mph - 0.00 in Rain Light Rain
9:51 AM 61.0 °F 57.0 °F 87% 29.58 in 8.0 mi ESE 8.1 mph - 0.02 in   Overcast
11:02 AM 62.6 °F 57.2 °F 82% 29.60 in 10.0 mi SE 11.5 mph 23.0 mph N/A   Overcast
11:43 AM 64.4 °F 59.0 °F 83% 29.61 in 10.0 mi SE 6.9 mph - N/A   Overcast
11:51 AM 64.0 °F 59.0 °F 84% 29.60 in 10.0 mi SE 11.5 mph 18.4 mph N/A   Overcast
12:51 PM 64.0 °F 57.9 °F 80% 29.60 in 10.0 mi SE 9.2 mph - 0.00 in Rain Light Rain
1:11 PM 64.4 °F 57.2 °F 77% 29.61 in 10.0 mi SE 8.1 mph 16.1 mph 0.00 in   Overcast
1:24 PM 64.4 °F 57.2 °F 77% 29.60 in 10.0 mi ESE 5.8 mph - 0.00 in   Overcast
1:40 PM 64.4 °F 57.2 °F 77% 29.60 in 10.0 mi ESE 9.2 mph 17.3 mph 0.00 in   Overcast
1:49 PM 62.6 °F 57.2 °F 82% 29.60 in 10.0 mi ESE 13.8 mph 19.6 mph 0.00 in   Overcast
1:51 PM 63.0 °F 57.0 °F 81% 29.60 in 10.0 mi SE 10.4 mph 19.6 mph 0.00 in   Overcast
2:29 PM 64.4 °F 57.2 °F 77% 29.60 in 10.0 mi ESE 11.5 mph 18.4 mph N/A   Overcast
3:08 PM 62.6 °F 57.2 °F 82% 29.61 in 10.0 mi ESE 6.9 mph - 0.00 in Rain Light Rain
3:51 PM 62.1 °F 57.9 °F 86% 29.59 in 6.0 mi East 4.6 mph - 0.00 in Rain Light Rain
4:23 PM 60.8 °F 57.2 °F 88% 29.59 in 9.0 mi East 4.6 mph - 0.00 in   Overcast
4:35 PM 60.8 °F 57.2 °F 88% 29.59 in 8.0 mi Calm Calm - 0.00 in   Overcast
4:51 PM 61.0 °F 57.9 °F 90% 29.58 in 8.0 mi East 4.6 mph - 0.00 in   Overcast
5:08 PM 60.8 °F 57.2 °F 88% 29.58 in 7.0 mi East 5.8 mph - 0.00 in Rain Light Rain
5:51 PM 59.0 °F 57.9 °F 96% 29.57 in 7.0 mi Calm Calm - 0.04 in Rain Light Rain
6:01 PM 59.0 °F 57.2 °F 94% 29.61 in 6.0 mi ESE 6.9 mph - 0.00 in Rain Light Rain
6:08 PM 59.0 °F 57.2 °F 94% 29.60 in 2.5 mi East 4.6 mph - 0.05 in Rain Heavy Rain
6:17 PM 59.0 °F 57.2 °F 94% 29.59 in 4.0 mi East 3.5 mph - 0.06 in Rain Light Rain
6:49 PM 59.0 °F 57.2 °F 94% 29.57 in 5.0 mi ENE 4.6 mph - 0.07 in   Overcast
6:51 PM 59.0 °F 57.9 °F 96% 29.56 in 5.0 mi East 5.8 mph - 0.07 in   Overcast
7:32 PM 59.0 °F 57.2 °F 94% 29.57 in 6.0 mi East 6.9 mph - 0.01 in Thunderstorm Overcast
7:41 PM 59.0 °F 57.2 °F 94% 29.57 in 6.0 mi East 6.9 mph - 0.01 in   Overcast
7:51 PM 59.0 °F 57.9 °F 96% 29.57 in 6.0 mi East 5.8 mph - 0.01 in   Overcast
8:19 PM 60.8 °F 57.2 °F 88% 29.56 in 9.0 mi ESE 4.6 mph - N/A   Mostly Cloudy
9:15 PM 60.8 °F 57.2 °F 88% 29.56 in 10.0 mi ESE 6.9 mph - N/A Thunderstorm Thunderstorm
9:21 PM 59.0 °F 57.2 °F 94% 29.60 in 1.2 mi South 23.0 mph 35.7 mph 0.23 in Thunderstorm Overcast
9:29 PM 57.2 °F 55.4 °F 94% 29.58 in 0.5 mi South 15.0 mph 38.0 mph 0.39 in Fog , Rain , Thunderstorm Heavy Thunderstorms and Rain
9:33 PM 57.2 °F 55.4 °F 94% 29.59 in 1.8 mi South 10.4 mph 31.1 mph 0.39 in Rain , Thunderstorm Thunderstorms and Rain
9:36 PM 57.2 °F 55.4 °F 94% 29.59 in 3.0 mi South 8.1 mph 31.1 mph 0.39 in Rain , Thunderstorm Light Thunderstorms and Rain
9:51 PM 57.9 °F 55.9 °F 93% 29.58 in 6.0 mi SSE 6.9 mph - 0.41 in Rain Light Rain
10:17 PM 57.2 °F 55.4 °F 94% 29.57 in 10.0 mi Calm Calm - 0.04 in Rain Light Rain
10:32 PM 57.2 °F 55.4 °F 94% 29.57 in 10.0 mi Calm Calm - 0.04 in   Overcast
10:51 PM 57.9 °F 55.9 °F 93% 29.56 in 10.0 mi Calm Calm - 0.04 in   Overcast
11:02 PM 57.2 °F 57.2 °F 100% 29.56 in 8.0 mi ENE 3.5 mph - N/A   Overcast
11:44 PM 59.0 °F 57.2 °F 94% 29.55 in 6.0 mi East 4.6 mph - N/A   Overcast